遥感四十三号02组-E (YAOGAN-43 02E)

导读

YAOGAN-43 02E(遥感四十三02星)是中国于2024年9月3日发射的遥感卫星,作为我国遥感卫星体系的重要组成部分,该卫星主要服务于科学试验研究、国土资源普查、农作物估产及防灾减灾等领域。它将持续提升我国遥感观测能力,获取更多空间地理信息数据,为国民经济发展、灾害应急防控等提供有力支撑,助力航天遥感事业发展。

基本信息
目录编号:
60949
目录名称:
YAOGAN-43 02E
国际标识:
2024-156E
轨道中心:
EARTH
卫星名称:
遥感四十三号02组-E (YAOGAN-43 02E)
卫星全名:
遥感四十三号02组-E (YAOGAN-43 02E)
卫星状态:
在轨 (已飞行738 天)
发射日期:
2024-09-03 UTC
国别 :
中国 (CN)
星等 :
--
该卫星已列入 空间交会检测服务 Space Conjunction Data Service (SCDS) ,当前飞行风险评估等级: 无高风险
轨道信息
数据来源 国际轨道数据 AOE轨道数据
星历时间 2026-09-11T03:10:21+0800
11小时前
查看轨道信息
2026-09-06T16:00:00+0800
4天前
查看轨道信息
半长轴 6875.026km 6875.263km
偏心率 0.0005545 0.0006299
轨道倾角 34.998° 34.997°
近地点辐角 11.234° 329.151°
升交点赤经 19.748° 47.827°
平近点角 348.849° 348.243°
近地点 493.076km 492.795km
远地点 500.702km 501.457km
周期 94.552分钟 94.557分钟
每日圈数 15.229699 15.228912
详细信息
运营商:
中国空间技术研究院
运营商所在国:
中国
制造商(研发单位):
中国空间技术研究院
制造商所在国:
中国
使用方式:
暂无
卫星简介
遥感四十三号卫星组分别由航天科技集团五院和八院等抓总研制,主要用于开展低轨星座系统新技术试验。
2D轨道图
3D轨道图
轨道高度分析图
轨道倾角分析图
轨道综合分析图
查看轨道综合分析图
与全量物体交会距离演化趋势
与全量物体交会风险概率演化趋势